Flag for Japan Weather past 2 weeks in Hamamatsu, Japan

Now
64 °F

Mild.


Feels Like: 64 °F
Forecast: 49 / 69 °F
Wind: 14 mph from Southeast

Location: Omaezaki

Current Time: Apr 25, 2015 at 6:38:39 PM

Latest Report: Apr 25, 2015 at 5:00 PM


Visibility: 8 mi

Pressure: 30.01 "Hg

Humidity: 67%

Dew point: 53 °F

Location of HamamatsuLocation

Historic Weather in Hamamatsu — Graph

°F

Hamamatsu temperature yesterday

Maximum temperature yesterday: 67 °F (at 2:00 PM)
Minimum temperature yesterday: 56 °F (at 5:00 AM)
Average temperature yesterday: 62 °F

Past Weeks' High & Low Weather Summary

 TemperatureHumidityPressure
High69 °F (Apr 25, 12:00 PM)100% (Apr 14, 7:00 PM)30.39 "Hg (Apr 14, 7:00 PM)
Low49 °F (Apr 18, 2:00 AM)34% (Apr 17, 6:00 PM)29.57 "Hg (Apr 21, 2:00 AM)
Average59 °F79%29.99 "Hg
* Reported Apr 10 5:00 PM — Apr 25 5:00 PM, Hamamatsu, Weather by CustomWeather, © 2015

Note: Actual official high and low records may vary slightly from our data, if they occured in-between our weather recording intervals... More about our weather records

Advertising

Hamamatsu weather history for previous 24 hours

 ConditionsComfort  
Time TempWeatherWind HumidityBarometerVisibility
5:00 PM
Sat, Apr 25
64 °FMild.14 mph67%30.01 "Hg8 mi
4:00 PM66 °FMild.14 mph68%30.00 "Hg7 mi
3:00 PM67 °FMild.15 mph65%30.00 "Hg9 mi
2:00 PM68 °FMild.14 mph58%30.00 "Hg9 mi
1:00 PM69 °FMild.12 mph59%30.00 "Hg12 mi
12:00 PM69 °FMild.10 mph65%30.01 "Hg11 mi
11:00 AM67 °FMild.7 mph68%30.02 "Hg12 mi
10:00 AM67 °FMild.8 mph73%30.03 "Hg12 mi
9:00 AM65 °FMild.8 mph74%30.03 "Hg10 mi
8:00 AM63 °FMild.6 mph76%30.02 "Hg9 mi
7:00 AM61 °FCool.3 mph80%30.03 "Hg10 mi
5:00 AM58 °FFog.6 mph87%29.99 "Hg4 mi
4:00 AM60 °FFog.12 mph92%29.98 "Hg3 mi
3:00 AM60 °FFog.10 mph92%29.98 "Hg2 mi
2:00 AM60 °FFog.8 mph94%29.98 "Hg2 mi
1:00 AM60 °FFog.6 mph94%30.00 "Hg2 mi
12:00 AM60 °FFog.6 mph94%30.02 "Hg2 mi
11:00 PM
Fri, Apr 24
61 °FFog.5 mph96%30.03 "Hg2 mi
10:00 PM61 °FCool.6 mph94%30.04 "Hg7 mi
9:00 PM62 °FCool.7 mph90%30.05 "Hg8 mi
8:00 PM62 °FCool.9 mph88%30.04 "Hg11 mi
7:00 PM62 °FCool.9 mph87%30.03 "Hg11 mi
6:00 PM63 °FMild.14 mph84%30.02 "Hg11 mi
Weather by CustomWeather, © 2015

See weather overviewHow to use our weather pages